Regional Weather Roundup
Issued by NWS

Home | Current Version | Previous Version | Graphics & Text | Print | Product List | Glossary On
Versions: 1 2 3 4 5 6 7 8 9 10 11 12 13 14 15 16 17 18 19 20 21 22 23 24 25 26 27 28 29 30 31 32 33 34 35 36 37 38 39 40 41 42 43 44 45 46 47 48 49 50
000
ASUS43 KLOT 111202
RWRIL

ILLINOIS REGIONAL WEATHER ROUNDUP
NATIONAL WEATHER SERVICE CHICAGO/ROMEOVILLE IL
600 AM CST SUN DEC 11 2016

NOTE: "FAIR" INDICATES FEW OR NO CLOUDS BELOW 12,000 FEET WITH NO
SIGNIFICANT WEATHER AND/OR OBSTRUCTIONS TO VISIBILITY.

* THESE STATIONS ARE NOT UNDER NWS QUALITY CONTROL. THEY ALSO MAY NOT
  REPORT WEATHER SUCH AS PRECIPITATION OR FOG.

ILZ001-002-007-009-015-016-024-111300-
NORTHWEST ILLINOIS

CITY           SKY/WX    TMP DP  RH WIND       PRES   REMARKS
MOLINE         CLOUDY    29  23  78 E8        29.95F WCI  21
6HR MIN TEMP:  26; 6HR MAX TEMP:  29;

STERLING*      CLOUDY    27  23  85 E10       30.00F WCI  17
$$

ILZ003-004-008-010-011-017-018-111300-
NORTH CENTRAL ILLINOIS

CITY           SKY/WX    TMP DP  RH WIND       PRES   REMARKS
ROCKFORD       CLOUDY    26  22  84 SE14      30.03F WCI  14
6HR MIN TEMP:  23; 6HR MAX TEMP:  26; 6HR PCP:  0.07;

FREEPORT*      CLOUDY    25  22  91 SE17      29.99F WCI  11
ROCHELLE*      CLOUDY    26  23  91 SE15      30.03F WCI  13
$$

ILZ005-006-012>014-019>023-111300-
NORTHEAST ILLINOIS

CITY           SKY/WX    TMP DP  RH WIND       PRES   REMARKS
CHICAGO-OHARE  CLOUDY    26  22  84 SE15      30.07F FOG     WCI  14
6HR MIN TEMP:  23; 6HR MAX TEMP:  26; 6HR PCP:  0.06;

CHICAGO-MIDWAY CLOUDY    27  21  78 SE12      30.09F WCI  17
6HR MIN TEMP:  25; 6HR MAX TEMP:  27; 6HR PCP:  0.02;

AURORA         CLOUDY    27  22  81 SE14      30.05F WCI  16
6HR MIN TEMP:  25; 6HR MAX TEMP:  27; 6HR PCP: TRACE;

LANSING*       FLURRIES  26  25  94 SE12      30.11F WCI  16
WAUKEGAN       LGT SNOW  29  25  85 S12G23    30.06F FOG     WCI  19
6HR MIN TEMP:  23; 6HR MAX TEMP:  29; 6HR PCP: TRACE;

DUPAGE AIRPORT CLOUDY    26  21  81 SE9       30.05F WCI  17
6HR MIN TEMP:  23; 6HR MAX TEMP:  26; 6HR PCP:  0.02;

WHEELING       LGT SNOW  25  22  88 SE9       30.08F FOG     WCI  15
6HR MIN TEMP:  23; 6HR MAX TEMP:  25; 6HR PCP:  0.02;

NORTHERLY ISL    N/A     27  24  89 S13         N/A  WCI  16
$$

LMZ740>746-111300-
SOUTHERN LAKE MICHIGAN

STATION/POSITION SKY/WX   TEMP    WIND        PRES    VSBY  WAVE
                          AIR SEA DIR/SP/G                  HT/PER
                          (F)     (DEG/KT/KT) (MB)    (MI)  (FT/S)
BURNHAM HARBOR             27     150/  7/ 16   N/A
CALUMET HARBOR             26     130/ 10/ 15 1019.2F
BURNS HARBOR               26     150/ 12/ 20 1020.7F
$$

ILZ025>027-034>036-040-047-049-050-058-095>099-111300-
WEST-CENTRAL ILLINOIS

CITY           SKY/WX    TMP DP  RH WIND       PRES   REMARKS
QUINCY         CLOUDY    36  19  50 SE9       29.93F WCI  29
GALESBURG*     CLOUDY    32  23  71 SE6       29.96F WCI  26
MACOMB*        CLOUDY    34  22  62 S14       29.98F WCI  24
JACKSONVILLE*  CLOUDY    35  20  53 S9        29.98F WCI  28
PITTSFIELD*    CLOUDY    36  21  54 SE7       29.96F WCI  30
$$

ILZ028>032-037-038-041>044-048-051>054-059>061-111300-
CENTRAL ILLINOIS

CITY           SKY/WX    TMP DP  RH WIND       PRES   REMARKS
BLOOMINGTON    CLOUDY    30  23  75 SE16      30.01F WCI  19
DECATUR        CLOUDY    34  20  56 S10       30.04F WCI  26
PEORIA         CLOUDY    33  22  63 S12       30.00F WCI  24
6HR MIN TEMP:  28; 6HR MAX TEMP:  33; 6HR PCP: TRACE;

LINCOLN*       CLOUDY    34  23  63 S9        30.02F WCI  27
SPRINGFIELD    CLOUDY    36  21  54 S9        30.02F WCI  29
6HR MIN TEMP:  33; 6HR MAX TEMP:  36;

TAYLORVILLE    CLOUDY    35  20  54 S14       30.02F WCI  26
6HR MIN TEMP:  31; 6HR MAX TEMP:  35;

$$

ILZ033-039-045-046-055>057-062-063-111300-
EAST-CENTRAL ILLINOIS

CITY           SKY/WX    TMP DP  RH WIND       PRES   REMARKS
CHAMPAIGN      CLOUDY    32  21  64 SE14      30.06F WCI  22
MATTOON        CLOUDY    33  19  56 SE14      30.06F WCI  23
PARIS*         CLOUDY    32  23  69 SE15      30.11F WCI  21
$$

ILZ079-100>102-111300-
SOUTHWEST ILLINOIS

CITY           SKY/WX    TMP DP  RH WIND       PRES   REMARKS
ALTON          CLOUDY    38  19  45 SE12      30.01F WCI  31
BELLEVILLE     CLOUDY    40  20  46 S13       30.02F
CAHOKIA*       CLOUDY    39  20  46 SE6       30.01F WCI  35
SPARTA*        CLOUDY    39  20  47 S17G28    30.04F WCI  30
$$

ILZ064>066-069>071-074>076-080>082-084>086-088>090-092>094-111300-
SOUTH-CENTRAL ILLINOIS

CITY           SKY/WX    TMP DP  RH WIND       PRES   REMARKS
CARBONDALE     CLOUDY    40  20  44 S16       30.10F
6HR MIN TEMP:  37; 6HR MAX TEMP:  40;

CAIRO*         CLOUDY    39  21  48 S13G18    30.15F WCI  32
EFFINGHAM*     CLOUDY    35  22  59 SE12G17   30.10F WCI  27
MARION         CLOUDY    41  19  42 S13       30.12F
CENTRALIA*     CLOUDY    39  21  48 S13       30.06F WCI  32
SALEM*         CLOUDY    40  18  40 S10G17    30.07F
$$

ILZ067-068-072-073-078-083-087-091-111300-
SOUTHEAST ILLINOIS

CITY           SKY/WX    TMP DP  RH WIND       PRES   REMARKS
LAWRENCEVILLE  CLOUDY    35  21  56 S13       30.16F WCI  26
HARRISBURG*    CLOUDY    40  21  46 S12G18    30.14F
ROBINSON*      CLOUDY    32  20  61 SE10      30.16F WCI  24
CARMI*         CLOUDY    35  25  67 SE10      30.15S WCI  27
$$

ABBREVIATIONS USED IN REMARKS
   TC - TEMPERATURE IN CELSIUS
  WCI - WIND CHILL INDEX
   HX - HEAT INDEX
  VSB - VISIBILITY
$$




USA.gov is the U.S. government's official web portal to all federal, state and local government web resources and services.